HYLAS 4

Last updated on Sun Dec 07 2025 00:02:49 GMT+0000 (Coordinated Universal Time)

1 43272U 18033B 25340.13473917 -.00000226 00000+0 00000+0 0 9991 2 43272 0.0120 306.3390 0002007 329.0979 174.6856 1.00267682 28138
UTC large
Height (km)
Speed (km/s)
/
Latitude / Longitude
Inclination (degrees)
Orbital Period (minutes)
Azimuth
Elevation
Range (km)
Doppler Factor

Next 0 passes for location: London (51.5072 / 0.1276)

Sorry there are no passes over London.